User: anonymous   Login
Location: Baix
(44.7118°N, 4.7648°E)
Time: 13:32:14
(UTC+00:00)
Language:

NPP - Orbit

View from above orbital plane
View from above orbital plane
View from above satellite
View from above satellite

Ground track
Ground track

The orbit data is extracted from the following two-line orbital elements,

1 37849U 11061A   20295.15748800  .00000026  00000-0  33056-4 0  9990
2 37849  98.7102 231.3321 0000634  91.2606  23.0848 14.19557429465458
Epoch (UTC): 21 October 2020 03:46:46
Eccentricity: 0.0000634
inclination: 98.7102°
perigee height: 826 km
apogee height: 827 km
right ascension of ascending node: 231.3321°
argument of perigee: 91.2606°
revolutions per day: 14.19557429
mean anomaly at epoch: 23.0848°
orbit number at epoch: 46545

The dashed part of the orbit path shows where the satellite is in the earth's shadow,  

DLR